EST,Max TemperatureF,Mean TemperatureF,Min TemperatureF,Max Dew PointF,MeanDew PointF,Min DewpointF,Max Humidity, Mean Humidity, Min Humidity, Max Sea Level PressureIn, Mean Sea Level PressureIn, Min Sea Level PressureIn, Max VisibilityMiles, Mean VisibilityMiles, Min VisibilityMiles, Max Wind SpeedMPH, Mean Wind SpeedMPH, Max Gust SpeedMPH,PrecipitationIn, CloudCover, Events, WindDirDegrees
2012-12-1,59,44,30,40,35,27,89,73,46,30.35,30.29,30.25,10,9,6,10,1,,0.00,0,,233
2012-12-2,63,52,41,54,48,36,100,86,48,30.25,30.17,30.11,10,6,2,18,4,25,0.43,6,Rain,205
2012-12-3,63,56,48,55,52,48,97,88,72,30.24,30.19,30.16,10,7,0,7,3,,0.13,5,Fog-Rain,183
2012-12-4,66,57,48,55,50,44,100,81,59,30.19,30.12,30.02,10,9,2,20,5,30,0.06,5,Rain,225
2012-12-5,48,38,28,43,34,22,93,74,50,30.33,30.25,30.14,10,10,10,12,5,,0.03,3,Rain,283
2012-12-6,55,40,24,38,28,20,85,67,36,30.32,30.17,30.04,10,10,10,6,2,,0.00,2,Rain,22
2012-12-7,53,50,46,52,49,41,100,93,80,30.03,29.96,29.87,10,5,0,8,2,,0.44,8,Fog-Rain,197
2012-12-8,59,54,48,55,51,48,100,91,82,30.02,29.91,29.85,10,7,0,12,3,,0.35,8,Fog-Rain,235
2012-12-9,59,50,42,55,47,41,100,90,81,30.08,30.00,29.77,10,7,2,13,6,,0.18,8,Rain,37
2012-12-10,60,48,35,52,45,34,94,87,72,29.84,29.70,29.56,10,8,3,15,7,29,0.51,8,Rain,242
2012-12-11,36,33,30,34,29,24,93,80,67,30.24,30.05,29.83,10,9,2,12,7,18,0.01,7,Rain-Snow,244
2012-12-12,39,32,24,28,24,22,92,77,55,30.43,30.37,30.25,10,9,5,6,1,,0.00,0,,12
2012-12-13,46,32,19,26,21,16,92,72,32,30.44,30.37,30.31,10,9,6,5,1,,0.01,0,,260
2012-12-14,51,36,21,30,23,19,89,65,33,30.35,30.29,30.24,10,10,10,10,1,,0.00,0,,216
2012-12-15,53,40,28,37,28,24,85,62,34,30.22,30.08,29.91,10,10,10,8,1,,0.02,3,Rain,147
2012-12-16,59,54,48,50,46,37,80,72,59,29.88,29.80,29.73,10,10,10,12,5,,0.01,6,,195
2012-12-17,57,52,48,52,49,45,100,91,72,29.78,29.65,29.54,10,7,1,9,3,,0.38,8,Rain,221
2012-12-18,48,42,37,43,36,32,87,80,73,29.86,29.74,29.55,10,10,10,14,9,22,0.05,8,Rain,247
2012-12-19,44,39,34,36,34,30,92,75,67,30.15,30.01,29.79,10,10,7,13,6,20,0.00,6,,242
2012-12-20,52,44,35,43,36,29,89,74,41,30.09,29.67,29.39,10,9,5,21,8,32,0.58,5,Rain,167
2012-12-21,37,32,28,29,25,22,89,82,65,29.80,29.60,29.47,10,3,0,23,17,34,0.00,8,Fog-Snow,247
2012-12-22,32,28,21,27,22,17,93,77,59,30.15,29.99,29.78,10,6,1,18,12,26,0.00,7,Snow,254
2012-12-23,43,31,19,25,20,15,85,68,45,30.12,30.01,29.92,10,10,10,10,3,,0.10,0,,207
2012-12-24,41,32,23,40,32,20,100,93,84,29.99,29.84,29.76,10,5,0,8,1,,0.18,6,Fog-Rain,247
2012-12-25,39,36,32,38,32,28,93,82,70,30.16,30.08,29.93,10,9,7,12,5,,0.01,7,,343
2012-12-26,39,36,32,32,30,28,96,85,73,30.06,29.67,29.50,10,6,2,14,7,28,0.69,7,Rain-Snow,56
2012-12-27,33,30,28,31,27,24,93,87,80,30.14,29.89,29.59,10,6,2,16,10,29,0.01,8,Rain-Snow,268
2012-12-28,34,31,28,27,25,24,86,82,72,30.17,30.08,29.91,10,10,8,7,3,,0.08,7,,9
2012-12-29,35,32,28,32,30,25,100,89,82,29.99,29.73,29.64,10,4,0,14,6,22,0.30,8,Fog-Rain-Snow,284
2012-12-30,28,24,21,25,21,17,86,79,69,30.42,30.23,29.97,10,7,1,18,11,28,0.00,7,Snow,261
2012-12-31,35,28,21,28,22,16,93,71,54,30.37,30.20,30.07,10,8,0,15,6,22,0.04,5,Snow,212